Port Hedland, Australia

10:24 AM AWST on October 18, 2017 (GMT +0800)
Port Hedland International

Weather History for YPPD - December, 2013

Change the Weather History Date:

Tuesday, December 24, 2013

  Actual Average Record
Temperature  
Mean Temperature 88 °F -  
Max Temperature 101 °F 97 °F 111 °F (2005)
Min Temperature 75 °F 77 °F 73 °F (2015)
Cooling Degree Days 23    
Growing Degree Days 38 (Base 50)    
Moisture  
Dew Point 72 °F    
Average Humidity 61    
Maximum Humidity 89    
Minimum Humidity 24    
Precipitation  
Precipitation 0.00 in 0.07 in - ()
Sea Level Pressure  
Sea Level Pressure 29.76 in    
Wind  
Wind Speed 8 mph ()    
Max Wind Speed 17 mph    
Max Gust Speed -    
Visibility 7.7 miles    
Events Rain    
Averages and records for this station are not official NWS values.
T = Trace of Precipitation, MM = Missing Value Source: Averaged Metar Reports

Daily Weather History Graph

Daily Weather History Graph

Search for Another Location

Airport or City:

Trip Planner

Search our weather history database for the weather conditions in past years. The results will help you decide how hot, cold, wet, or windy it might be!

Date:

Astronomy

Dec. 24, 2013 Rise Set
Actual Time 5:23 AM AWST 6:46 PM AWST
Civil Twilight 4:59 AM AWST 7:10 PM AWST
Nautical Twilight 4:29 AM AWST 7:40 PM AWST
Astronomical Twilight 3:59 AM AWST 8:10 PM AWST
Moon 11:18 PM AWST (12/24) 10:52 AM AWST (12/24)
Length of Visible Light 14h 11m
Length of Day
13h 22m
Waning Gibbous, 64% of the Moon is Illuminated
Dec 24
Waning Gibbous
Dec 25
Last Quarter
Jan 1
New
Jan 8
First Quarter
Jan 16
Full

Hourly Weather History & Observations

Time (AWST) Temp. Heat Index Dew Point Humidity Pressure Visibility Wind Dir Wind Speed Gust Speed Precip Events Conditions
12:00 AM 80 °F - 74 °F 76% 29.80 in - SW 5.8 mph - -  
12:00 AM 80.6 °F 85.4 °F 73.4 °F 79% 29.80 in 6.2 mi SW 5.8 mph - N/A   Unknown
12:30 AM 80.6 °F 85.4 °F 73.4 °F 79% 29.77 in 6.2 mi West 9.2 mph - N/A   Unknown
1:00 AM 80.6 °F 85.4 °F 73.4 °F 79% 29.77 in 6.2 mi WSW 8.1 mph - N/A   Unknown
1:30 AM 80.6 °F 85.4 °F 73.4 °F 79% 29.77 in 6.2 mi WSW 6.9 mph - N/A   Scattered Clouds
2:00 AM 79 °F - 74 °F 79% 29.77 in - West 9.2 mph - -  
2:00 AM 78.8 °F - 73.4 °F 83% 29.77 in 6.2 mi West 9.2 mph - N/A   Scattered Clouds
2:30 AM 78.8 °F - 73.4 °F 83% 29.77 in 6.2 mi SSW 5.8 mph - N/A   Unknown
3:00 AM 78 °F - 73 °F 80% 29.77 in - WSW 5.8 mph - -  
3:00 AM 78.8 °F - 73.4 °F 83% 29.77 in 6.2 mi WSW 5.8 mph - N/A   Unknown
3:30 AM 77.0 °F - 73.4 °F 89% 29.77 in 6.2 mi SW 5.8 mph - N/A   Unknown
4:00 AM 77.0 °F - 73.4 °F 89% 29.77 in 6.2 mi WSW 4.6 mph - N/A   Unknown
4:30 AM 77.0 °F - 71.6 °F 83% 29.77 in 6.2 mi WSW 5.8 mph - N/A   Unknown
5:00 AM 76 °F - 73 °F 89% 29.78 in - SW 5.8 mph - -  
5:00 AM 77.0 °F - 73.4 °F 89% 29.77 in 6.2 mi SW 5.8 mph - N/A   Unknown
5:30 AM 77.0 °F - 73.4 °F 89% 29.77 in 6.2 mi SW 5.8 mph - N/A   Unknown
6:00 AM 78 °F - 74 °F 82% 29.80 in 19 mi SW 5.8 mph - -   Partly Cloudy
6:00 AM 78.8 °F - 73.4 °F 83% 29.80 in - SW 5.8 mph - N/A   Clear
6:30 AM 80.6 °F 85.4 °F 73.4 °F 79% 29.80 in - SW 10.4 mph - N/A   Clear
7:00 AM 82.4 °F 88.2 °F 73.4 °F 74% 29.80 in - SW 10.4 mph - N/A   Clear
7:30 AM 86.0 °F 91.8 °F 71.6 °F 62% 29.80 in - SSW 9.2 mph - N/A   Clear
8:00 AM 90 °F - 68 °F 39% 29.82 in - SSE 8.1 mph - -  
8:00 AM 89.6 °F 93.4 °F 68.0 °F 49% 29.80 in - SSE 8.1 mph - N/A   Clear
8:30 AM 93.2 °F 96.2 °F 66.2 °F 41% 29.83 in - East 11.5 mph - N/A   Clear
9:00 AM 94 °F - 66 °F 30% 29.82 in 19 mi ENE 10.4 mph - -   Partly Cloudy
9:00 AM 93.2 °F 96.2 °F 66.2 °F 41% 29.80 in - ENE 10.4 mph - N/A   Clear
9:30 AM 95.0 °F 98.5 °F 66.2 °F 39% 29.80 in - ENE 12.7 mph - N/A   Clear
10:00 AM 95.0 °F 99.5 °F 68.0 °F 41% 29.80 in - North 12.7 mph - N/A   Clear
10:30 AM 96.8 °F 103.1 °F 69.8 °F 41% 29.77 in - North 12.7 mph - N/A   Clear
11:00 AM 99 °F - 67 °F 26% 29.77 in - NNE 15.0 mph - -  
11:00 AM 98.6 °F 104.1 °F 68.0 °F 37% 29.77 in - NNE 15.0 mph - N/A   Clear
11:30 AM 98.6 °F 102.8 °F 66.2 °F 35% 29.74 in 6.2 mi NNE 15.0 mph - N/A   Unknown
12:00 PM 101 °F - 67 °F 24% 29.75 in 19 mi NNE 13.8 mph - -   Partly Cloudy
12:00 PM 100.4 °F 106.3 °F 68.0 °F 35% 29.74 in - NNE 13.8 mph - N/A   Clear
12:30 PM 98.6 °F 102.8 °F 66.2 °F 35% 29.71 in - North 15.0 mph - N/A   Clear
1:00 PM 98.6 °F 102.8 °F 66.2 °F 35% 29.71 in - North 17.3 mph - N/A   Clear
1:30 PM 96.8 °F 103.1 °F 69.8 °F 41% 29.71 in - North 17.3 mph - N/A   Clear
2:00 PM 96 °F - 71 °F 36% 29.71 in - North 17.3 mph - -  
2:00 PM 96.8 °F 105.1 °F 71.6 °F 44% 29.71 in - North 17.3 mph - N/A   Clear
2:30 PM 95.0 °F 103.2 °F 71.6 °F 47% 29.71 in - North 16.1 mph - N/A   Clear
3:00 PM 95 °F - 71 °F 36% 29.71 in 19 mi North 13.8 mph - -   Partly Cloudy
3:00 PM 95.0 °F 103.2 °F 71.6 °F 47% 29.71 in - North 13.8 mph - N/A   Clear
3:30 PM 93.2 °F 100.5 °F 71.6 °F 49% 29.68 in 6.2 mi NNW 15.0 mph - N/A   Unknown
4:00 PM 91.4 °F 98.4 °F 71.6 °F 52% 29.71 in 6.2 mi NNW 12.7 mph - N/A   Unknown
4:30 PM 89.6 °F 98.2 °F 73.4 °F 59% 29.71 in 6.2 mi West 11.5 mph - N/A   Scattered Clouds
5:00 PM 90 °F - 73 °F 48% 29.70 in - NW 12.7 mph - -  
5:00 PM 89.6 °F 98.2 °F 73.4 °F 59% 29.68 in 6.2 mi NW 12.7 mph - N/A Rain Light Rain Showers
5:30 PM 89.6 °F 98.2 °F 73.4 °F 59% 29.71 in 6.2 mi NW 9.2 mph - N/A   Unknown
6:00 PM 89 °F - 73 °F 51% 29.74 in - NW 5.8 mph - -  
6:00 PM 89.6 °F 98.2 °F 73.4 °F 59% 29.74 in 6.2 mi NW 5.8 mph - N/A   Unknown
6:30 PM 87.8 °F 95.6 °F 73.4 °F 62% 29.74 in 6.2 mi NNW 3.5 mph - N/A   Unknown
7:00 PM 87.8 °F 95.6 °F 73.4 °F 62% 29.74 in 6.2 mi WNW 6.9 mph - N/A   Unknown
7:30 PM 87.8 °F 95.6 °F 73.4 °F 62% 29.74 in 6.2 mi West 9.2 mph - N/A   Unknown
8:00 PM 87 °F - 73 °F 55% 29.75 in - WNW 8.1 mph - -  
8:00 PM 86.0 °F 93.4 °F 73.4 °F 66% 29.74 in 6.2 mi WNW 8.1 mph - N/A   Unknown
8:30 PM 86.0 °F 93.4 °F 73.4 °F 66% 29.74 in 6.2 mi WNW 8.1 mph - N/A   Unknown
9:00 PM 85 °F - 76 °F 68% 29.76 in - NNW 5.8 mph - -  
9:00 PM 84.2 °F 92.3 °F 75.2 °F 74% 29.74 in 6.2 mi NNW 5.8 mph - N/A   Unknown
9:30 PM 84.2 °F 92.3 °F 75.2 °F 74% 29.77 in 6.2 mi WNW 5.8 mph - N/A   Unknown
10:00 PM 86.0 °F 95.1 °F 75.2 °F 70% 29.77 in 6.2 mi WSW 12.7 mph - N/A   Scattered Clouds
10:30 PM 84.2 °F 90.9 °F 73.4 °F 70% 29.77 in 6.2 mi WSW 10.4 mph - N/A   Scattered Clouds
11:00 PM 84 °F - 74 °F 66% 29.78 in - WSW 6.9 mph - -  
11:00 PM 84.2 °F 92.3 °F 75.2 °F 74% 29.77 in 6.2 mi WSW 6.9 mph - N/A   Unknown
11:30 PM 84.2 °F 90.9 °F 73.4 °F 70% 29.77 in 6.2 mi WSW 9.2 mph - N/A   Scattered Clouds